Probability
0 0 0 0 0 0 0 0 0 0 0 0 0 0 0 0 0 0 0 0 0 0 0 0 0 0 0 0 0 0 0 0 0 0 0 0 0 0 0 0 0 0 0 0
0 0 0 0 0 0 0 0 0 0 0 0 0 0 0 0 0 0 0 0 0 0 0 0 0 0 0 0 0 0 0 0 0 0 0 0 0 0 0 0 0 0 0 0
0 0 0 0 0 0 0 0 0 0 0 0 0 0 0 0 0 0 0 0 0 0 0 0 0 0 0 0 0 0 0 0 0 0 0 0 0 0 0 0 0 0 0 0
0 0 0 0 0 0 0 0 0 0 0 0 0 0 0 0 0 0 0 0 0 0 0 0 0 0 0 0 0 0 0 0 0 0 0 0 0 0 0 0 0 0 0 0
0 0 0 0 0 0 0 0 0 0 0 0 0 0 0 0 0 0 0 0 0 0 0 0 0 0 0 0 0 0 0 0 0 0 0 0 0 0 0 0 0 0 0 0
0 0 0 0 0 0 0 0 0 0 0 0 0 0 0 0 0 0 0 0 0 0 0 0 0 0 0 0 0 0 0 0 0 0 0 0 0 0 0 0 0 0 0 0
0 0 0 0 0 0 0 0 0 0 0 0 0 0 0 0 0 0 0 0 0 0 0 0 0 0 0 0 0 0 0 0 0 0 0 0 0 0 0 0 0 0 0 0
0 0 0 0 0 0 0 0 0 0 0 0 0 0 0 0 0 0 0 0 0 0 0 0 0 0 0 0 0 0 0 0 0 0 0 0 0 0 0 0 0 0 0 0
0 0 0 0 0 0 0 0 0 0 0 0 0 0 0 0 0 0 0 0 0 0 0 0 0 0 0 0 0 0 0 0 0 0 0 0 0 0 0 0 0 0 0 0
0 0 0 0 0 0 0 0 0 0 0 0 0 0 0 0 0 0 0 0 0 0 0 0 0 0 0 0 0 0 0 0 0 0 0 0 0 0 0 0 0 0 0 0
0 0 0 0 0 0 0 0 0 0 0 0 0 0 0 0 0 0 0 0 0 0 0 0 0 0 0 0 0 0 0 0 0 0 0 0 0 0 0 0 0 0 0 0
0 0 0 0 0 0 0 0 0 0 0 0 0 0 0 0 0 0 0 0 0 0 0 0 0 0 0 0 0 0 0 0 0 0 0 0 0 0 0 0 0 0 0 0
0 0 0 0 0 0 0 0 0 0 0 0 0 0 0 0 0 0 0 0 0 0 0 0 0 0 0 0 0 0 0 0 0 0 0 0 0 0 0 0 0 0 0 0
0 0 0 0 0 0 0 0 0 0 0 0 0 0 0 0 0 0 0 0 0 0 0 0 0 0 0 0 0 0 0 0 0 0 0 0 0 0 0 0 0 0 0 0
0 0 0 0 0 0 0 0 0 0 0 0 0 0 0 0 0 0 0 0 0 0 0 0 0 0 0 0 0 0 0 0 0 0 0 0 0 0 0 0 0 0 0 0
0 0 0 0 0 0 0 0 0 0 0 0 0 0 0 0 0 0 0 0 0 0 0 0 0 0 0 0 0 0 0 0 0 0 0 0 0 0 0 0 0 0 0 0
0 0 0 0 0 0 0 0 0 0 0 0 0 0 0 0 0 0 0 0 0 0 0 0 0 0 0 0 0 0 0 0 0 0 0 0 0 0 0 0 0 0 0 0
0 0 0 0 0 0 0 0 0 0 0 0 0 0 0 0 0 0 0 0 0 0 0 0 0 0 0 0 0 0 0 0 0 0 0 0 0 0 0 0 0 0 0 0
0 0 0 0 0 0 0 0 0 0 0 0 0 0 0 0 0 0 0 0 0 0 0 0 0 0 0 0 0 0 0 0 0 0 0 0 0 0 0 0 0 0 0 0
0 0 0 0 0 0 0 0 0 0 0 0 0 0 0 0 0 0 0 0 0 0 0 0 0 0 0 0 0 0 0 0 0 0 0 0 0 0 0 0 0 0 0 0
0 0 0 0 0 0 0 0 0 0 0 0 0 0 0 0 0 0 0 0 0 0 0 0 0 0 0 0 0 0 0 0 0 0 0 0 0 0 0 0 0 0 0 0
0 0 0 0 0 0 0 0 0 0 0 0 0 0 0 0 0 0 0 0 0 0 0 0 0 0 0 0 0 0 0 0 0 0 0 0 0 0 0 0 0 0 0 0
0 0 0 0 0 0 0 0 0 0 0 0 0 0 0 0 0 0 0 0 0 0 0 0 0 0 0 0 0 0 0 0 0 0 0 0 0 0 0 0 0 0 0 0
0 0 0 0 0 0 0 0 0 0 0 0 0 0 0 0 0 0 0 0 0 0 0 0 0 0 0 0 0 0 0 0 0 0 0 0 0 0 0 0 0 0 0 0
0 0 0 0 0 0 0 0 0 0 0 0 0 0 0 0 0 0 0 0 0 0 0 0 0 0 0 0 0 0 0 0 0 0 0 0 0 0 0 0 0 0 0 0
0 0 0 0 0 0 0 0 0 0 0 0 0 0 0 0 0 0 0 0 0 0 0 0 0 0 0 0 0 0 0 0 0 0 0 0 0 0 0 0 0 0 0 0
0 0 0 0 0 0 0 0 0 0 0 0 0 0 0 0 0 0 0 0 0 0 0 0 0 0 0 0 0 0 0 0 0 0 0 0 0 0 0 0 0 0 0 0
Wind_Speed
2 2 2 5 6 6 6 6 6 6 6 4 4 4 3 3 3 2 2 1 1 2 3 4 4 4 4 5 6 6 6 6 6 7 7 7 7 7 7 6 7 6 6 6
3 2 4 6 6 7 6 5 7 6 3 3 3 4 3 3 3 2 0 1 2 3 4 4 4 4 5 6 6 6 6 6 7 7 7 7 7 7 7 7 6 6 6 6
2 3 4 4 1 5 5 3 6 4 4 3 3 4 4 3 3 2 1 1 2 3 3 4 4 4 5 6 6 6 6 7 7 7 7 7 8 7 7 7 6 6 6 6
1 5 2 4 2 10 9 4 5 5 4 4 5 5 4 4 4 2 1 1 2 3 3 3 3 4 5 6 6 6 7 7 7 7 8 8 7 7 7 6 6 6 6 6
3 2 1 2 1 6 7 2 2 5 4 4 4 3 1 2 3 3 2 1 2 2 2 3 4 5 5 6 6 7 7 8 8 8 8 8 8 8 7 6 6 5 5 5
3 3 3 5 2 5 9 1 2 5 5 4 4 2 4 3 3 2 1 1 1 2 2 3 5 5 5 6 7 7 8 8 8 8 8 8 8 7 6 5 5 5 5 5
2 2 4 4 2 5 3 6 5 6 6 5 5 6 5 4 3 2 0 0 1 2 3 4 5 4 5 6 7 8 8 8 8 8 7 7 6 5 6 5 5 5 5 4
4 3 7 5 4 6 8 5 6 6 6 5 5 4 4 4 2 1 1 1 2 2 4 5 5 4 6 7 8 7 7 8 8 8 7 6 6 6 5 5 5 5 4 4
7 7 7 5 7 6 8 7 6 6 5 7 5 4 4 3 2 1 1 1 2 2 4 5 5 4 5 7 7 7 8 8 8 8 7 6 5 6 5 4 3 4 3 3
2 2 4 4 5 6 7 7 7 7 7 7 6 5 4 3 2 1 1 1 1 2 4 5 6 5 5 6 6 7 8 8 7 7 7 6 5 4 3 4 4 3 3 3
2 2 4 3 6 8 6 7 7 6 7 7 7 6 5 4 3 2 2 2 1 2 3 5 6 6 6 6 6 7 7 7 7 6 6 6 5 4 4 3 3 3 3 3
7 9 8 8 8 8 8 8 8 8 6 6 7 7 5 4 3 2 2 1 1 3 4 5 5 6 6 6 6 6 6 6 5 5 5 5 5 5 6 5 6 5 4 4
7 6 6 8 9 8 8 8 8 8 8 7 6 6 6 4 3 2 1 1 2 3 3 4 5 5 6 6 6 6 6 6 5 5 5 5 4 4 5 6 6 5 5 5
8 8 6 5 7 7 7 8 7 7 7 8 7 6 5 4 3 2 2 2 2 2 3 3 4 5 6 6 6 6 6 7 6 5 5 5 5 4 3 3 4 4 4 6
6 7 8 7 7 7 7 7 7 6 6 6 6 6 5 5 4 3 3 2 1 1 3 3 4 6 7 6 6 6 6 5 5 5 5 5 4 4 3 4 3 3 4 4
5 6 8 9 9 8 7 7 7 7 7 7 6 6 6 6 5 4 3 2 1 2 3 3 4 6 6 5 6 5 5 9 8 5 5 5 4 4 4 4 4 3 3 3
8 7 7 7 8 8 8 8 8 8 8 8 8 7 6 5 4 3 3 3 3 3 3 3 4 6 5 5 5 4 5 6 9 6 4 4 4 4 4 3 3 4 4 4
8 9 9 11 10 8 8 8 8 8 8 8 8 7 7 6 5 5 4 3 2 2 3 3 4 5 5 5 4 4 4 4 4 4 4 4 4 4 4 3 4 4 4 4
4 5 5 6 6 7 7 7 8 8 8 8 8 8 7 7 6 5 4 3 3 3 4 4 5 3 4 6 6 4 4 5 5 4 4 5 5 4 4 3 3 4 4 3
4 4 5 4 4 5 5 6 7 7 7 8 8 7 6 7 6 6 4 4 5 5 4 4 3 3 4 5 7 4 4 4 4 4 4 4 4 4 4 4 4 4 4 3
4 4 3 3 2 2 4 5 6 7 7 8 9 9 8 8 7 6 4 4 5 4 4 4 2 2 3 4 6 3 3 3 3 3 4 4 4 4 4 4 4 4 4 4
5 4 2 1 0 1 2 3 5 6 7 7 8 8 7 7 7 5 5 5 5 6 4 2 2 3 4 4 3 3 3 3 3 3 3 3 3 3 4 4 4 4 4 4
5 4 4 3 3 3 4 3 4 5 6 8 8 8 8 8 6 5 4 4 4 6 4 3 4 4 4 2 2 2 2 2 2 3 3 3 3 3 3 4 4 4 4 4
6 6 6 5 4 3 4 5 5 5 6 6 7 8 7 6 4 5 5 7 9 8 4 5 6 5 3 1 1 1 2 2 2 2 2 3 3 3 3 3 4 4 4 5
5 5 5 5 5 5 6 6 5 5 5 4 5 6 6 6 6 5 5 7 9 8 4 5 6 5 2 1 1 1 1 1 2 1 2 2 2 3 3 3 3 4 4 4
6 5 5 5 5 5 5 4 4 4 4 4 4 4 4 4 5 5 5 6 8 7 5 3 3 3 2 1 1 1 0 1 2 2 2 2 3 3 3 4 5 4 4 4
6 5 4 4 5 4 4 3 4 4 4 5 5 4 4 4 4 5 6 5 5 5 4 3 3 2 2 2 2 1 1 1 1 2 2 2 2 2 3 4 3 4 4 5
Wind_Direction
234 246 117 119 120 109 108 143 144 170 166 201 193 169 166 150 127 97 81 55 350 309 298 306 312 314 316 309 306 309 310 306 299 295 293 292 291 289 288 284 284 275 271 269
359 0 82 83 99 103 94 101 122 135 163 196 162 137 124 123 119 107 100 300 310 315 317 315 315 315 316 311 308 309 309 303 300 302 302 299 295 292 290 286 283 278 272 268
317 305 61 32 87 108 92 97 137 152 194 173 140 146 158 156 145 157 218 284 311 313 304 301 302 306 311 308 309 312 309 306 305 305 304 300 300 301 291 286 281 278 272 266
35 39 69 246 134 116 105 83 118 132 148 155 164 174 174 169 161 171 216 290 300 298 302 302 303 310 312 314 317 314 311 309 309 308 304 302 299 295 289 282 280 276 274 267
106 103 179 256 191 147 123 87 136 134 134 134 136 100 326 209 171 175 194 227 258 279 285 305 313 313 320 321 319 316 314 312 311 310 306 304 303 298 292 288 287 280 273 267
125 132 207 237 267 116 101 109 224 149 148 153 125 89 259 226 179 167 184 240 295 313 324 324 314 318 326 321 320 315 312 309 308 307 304 302 299 295 292 287 285 287 286 276
165 178 240 234 176 93 114 230 206 163 160 157 168 197 212 192 177 168 158 352 356 351 330 310 311 327 326 320 314 306 306 308 310 310 304 299 300 298 301 303 302 299 297 297
148 163 239 222 127 152 197 190 161 160 162 154 164 164 159 162 163 141 81 4 349 342 321 310 316 328 324 316 306 308 311 314 315 314 313 319 315 313 314 316 314 311 307 309
174 203 221 187 173 178 155 155 165 162 163 147 147 158 160 159 157 154 144 301 317 328 322 317 315 318 314 306 311 317 320 319 317 318 317 315 316 317 320 325 322 317 319 315
133 215 182 156 144 152 157 158 164 157 153 146 150 156 154 159 171 191 227 283 310 330 326 316 312 314 303 303 314 321 321 319 319 320 320 323 323 317 315 319 320 319 321 316
137 168 118 168 173 166 158 147 143 143 151 153 148 153 159 170 186 204 230 264 279 297 301 303 310 315 313 314 322 323 321 319 319 316 317 319 319 310 304 285 277 280 278 279
204 200 170 196 193 166 154 159 158 154 155 154 152 156 156 170 189 197 215 243 279 299 302 304 314 317 315 317 321 321 320 319 315 313 315 316 315 316 310 296 296 293 274 261
181 179 164 167 171 165 161 166 167 164 163 159 157 154 155 169 186 186 191 234 263 280 292 304 316 318 315 318 322 320 313 310 309 311 313 315 314 316 319 322 316 305 294 285
139 121 122 153 170 168 160 163 160 159 160 156 156 155 154 161 171 174 203 234 243 272 298 310 317 314 311 318 322 320 317 314 314 307 310 311 310 307 303 306 318 319 301 283
165 155 163 164 155 157 150 145 145 155 154 154 155 157 159 162 174 193 212 220 234 304 308 314 316 311 313 321 323 320 318 313 311 309 313 314 315 317 313 310 305 305 313 313
170 139 142 149 160 163 156 158 161 172 167 165 169 173 172 168 172 183 205 203 207 264 282 295 301 302 311 321 324 321 317 322 330 320 321 324 327 332 329 322 317 311 310 305
141 153 163 170 175 176 177 175 172 173 171 171 178 174 162 156 160 189 224 229 219 228 244 260 284 300 310 318 321 315 314 318 330 331 326 322 325 329 326 324 319 314 306 301
167 173 172 173 175 177 181 173 168 166 171 178 168 160 163 168 185 207 223 226 223 252 257 259 281 304 312 316 319 314 312 311 317 319 320 322 323 325 328 328 327 325 319 322
122 133 143 154 162 164 167 172 174 174 171 164 164 171 179 184 191 201 206 200 214 251 263 272 296 308 309 315 329 316 319 320 323 322 320 325 333 335 335 336 333 331 332 335
90 108 126 136 141 151 163 169 169 171 174 169 168 174 182 193 194 197 198 209 218 221 237 260 278 286 301 313 329 316 317 318 322 324 327 331 332 334 335 335 336 334 337 340
73 78 92 110 129 154 169 168 166 178 185 177 177 187 195 200 197 189 188 220 238 224 233 254 246 262 291 310 318 311 314 322 329 329 330 331 334 339 339 338 341 343 347 350
24 30 29 37 66 244 223 195 187 186 187 192 195 194 192 197 199 199 206 208 208 202 208 227 229 254 293 315 314 313 318 331 335 334 336 340 342 342 342 344 346 347 353 356
12 5 351 335 296 264 260 240 217 201 199 203 204 200 199 200 190 185 215 217 192 197 199 217 233 262 295 314 313 311 320 336 339 335 333 336 338 339 343 349 350 352 356 358
351 347 342 336 326 307 272 261 248 232 220 217 214 206 196 194 205 207 196 182 185 191 202 218 230 249 271 286 307 310 315 328 332 333 338 339 341 347 350 355 359 359 4 10
323 326 332 325 307 283 265 256 249 241 234 233 228 214 203 193 193 196 179 179 185 185 201 219 226 233 226 237 244 272 294 316 331 341 355 356 354 358 1 3 7 12 19 20
310 303 293 283 276 273 270 260 248 241 231 234 238 227 211 194 179 169 173 181 184 185 190 203 214 216 204 204 203 166 61 358 6 14 12 15 10 13 12 16 25 22 21 24
310 307 305 308 303 297 287 269 253 246 232 223 235 231 209 188 175 174 175 179 181 182 187 194 194 185 173 159 140 122 98 72 49 40 29 27 26 26 25 29 31 27 27 32